TimeCST,TemperatureF,Dew PointF,Humidity,Sea Level PressureIn,VisibilityMPH,Wind Direction,Wind SpeedMPH,Gust SpeedMPH,PrecipitationIn,Events,Conditions,WindDirDegrees,DateUTC
12:55 AM,38.1,33.8,84,30.35,10.0,Calm,Calm,-,N/A,,Clear,0,2013-01-05 06:55:00
1:55 AM,36.7,34.0,90,30.36,10.0,Calm,Calm,-,N/A,,Clear,0,2013-01-05 07:55:00
2:55 AM,36.9,32.0,83,30.35,10.0,North,3.5,-,N/A,,Clear,10,2013-01-05 08:55:00
3:55 AM,36.1,30.9,81,30.35,10.0,Calm,Calm,-,N/A,,Clear,0,2013-01-05 09:55:00
4:55 AM,36.5,29.7,76,30.35,10.0,Calm,Calm,-,N/A,,Clear,0,2013-01-05 10:55:00
5:55 AM,36.3,29.8,77,30.35,10.0,Calm,Calm,-,N/A,,Clear,0,2013-01-05 11:55:00
6:55 AM,36.9,30.0,76,30.36,10.0,NNE,3.5,-,N/A,,Partly Cloudy,30,2013-01-05 12:55:00
7:55 AM,40.6,30.2,66,30.37,10.0,NE,4.6,-,N/A,,Clear,50,2013-01-05 13:55:00
8:55 AM,45.3,28.8,52,30.38,10.0,ENE,8.1,-,N/A,,Clear,70,2013-01-05 14:55:00
9:55 AM,50.0,26.4,40,30.37,10.0,ENE,9.2,-,N/A,,Clear,70,2013-01-05 15:55:00
10:55 AM,53.2,27.3,37,30.36,10.0,Variable,3.5,-,N/A,,Overcast,0,2013-01-05 16:55:00
11:55 AM,53.2,28.4,38,30.32,10.0,ENE,6.9,-,N/A,,Partly Cloudy,70,2013-01-05 17:55:00
12:36 PM,51.8,30.2,44,30.30,10.0,NNE,5.8,-,N/A,Rain,Light Rain,30,2013-01-05 18:36:00
12:52 PM,51.8,33.8,50,30.31,10.0,NNE,3.5,-,N/A,,Partly Cloudy,20,2013-01-05 18:52:00
12:55 PM,52.3,34.3,50,30.31,10.0,North,3.5,-,0.00,,Partly Cloudy,360,2013-01-05 18:55:00
1:55 PM,52.9,34.9,50,30.27,10.0,East,3.5,-,N/A,,Partly Cloudy,90,2013-01-05 19:55:00
2:55 PM,53.4,34.3,48,30.30,10.0,Variable,3.5,-,N/A,,Mostly Cloudy,0,2013-01-05 20:55:00
3:55 PM,52.0,37.2,57,30.32,10.0,North,5.8,-,N/A,,Scattered Clouds,350,2013-01-05 21:55:00
4:55 PM,50.4,38.3,63,30.32,10.0,Calm,Calm,-,N/A,,Clear,0,2013-01-05 22:55:00
5:55 PM,48.9,39.4,70,30.31,10.0,ENE,4.6,-,N/A,,Partly Cloudy,60,2013-01-05 23:55:00
6:55 PM,49.1,39.4,69,30.34,10.0,North,6.9,-,N/A,,Overcast,360,2013-01-06 00:55:00
7:55 PM,50.2,35.4,57,30.30,10.0,NE,5.8,-,N/A,,Overcast,50,2013-01-06 01:55:00
8:55 PM,49.6,35.4,58,30.27,10.0,ENE,6.9,-,N/A,,Mostly Cloudy,70,2013-01-06 02:55:00
9:55 PM,48.6,35.8,61,30.27,10.0,NNE,3.5,-,N/A,,Clear,20,2013-01-06 03:55:00
10:55 PM,47.8,35.2,62,30.26,10.0,NE,3.5,-,N/A,,Clear,40,2013-01-06 04:55:00
11:55 PM,47.3,36.0,65,30.25,10.0,Calm,Calm,-,N/A,,Partly Cloudy,0,2013-01-06 05:55:00